Terminal Aerodrome Forecast
Issued by NWS Wilmington, OH

Current Version | Previous Version | Graphics & Text | Print | Product List | Glossary On
Versions: 1 2 3 4 5 6 7 8 9 10 11 12 13 14 15 16 17 18 19 20 21 22 23 24 25 26 27 28 29 30
000
FTUS41 KILN 201400 AAB
TAFILN
TAF AMD
KILN 201401Z 2014/2112 06004KT 4SM BR BKN005
     FM201500 11004KT P6SM FEW001 SCT045
     FM201800 13006KT P6SM BKN025
     FM210100 VRB03KT 3SM BR BKN025=

USA.gov is the U.S. government's official web portal to all federal, state and local government web resources and services.